DLH495 CYYZ-EDDM

Flight info

Callsign DLH495
Flight time N/A
Altitude 37000
Route VERDO7 IPTOS Q921 AGLUK DCT BAREE N747B LOMSI/M084F390 DCT 55N050W 57N040W 58N030W 58N020W DCT GOMUP/N0482F390 DCT GINGA DCT GODOS DCT BERGI DCT DOJOH DCT DODEN DCT TABUM DCT BOMBI T104 HAREM/N0468F350 T104 ELMOX/N0436F270 T104 ROKIL
Aircraft A359/H-SADE2E3GHIJ1J2J3J4J5M1P2RWXYZ/LB1D1

Departure

Time 2026-05-05 11:53
Airport Toronto Pearson International Airport (CYYZ)

Arrival

Time N/A
Airport Munich Airport (EDDM)
Time Latitude Longitude Altitude Speed Heading
2026-05-05 11:03 43.67582 -79.61169 568 ft 0 kts
2026-05-05 11:39 43.67575 -79.61170 568 ft 4 kts
2026-05-05 11:39 43.67548 -79.61175 572 ft 4 kts
2026-05-05 11:39 43.67522 -79.61179 572 ft 4 kts 356°
2026-05-05 11:40 43.67496 -79.61171 571 ft 4 kts 328°
2026-05-05 11:40 43.67480 -79.61147 571 ft 4 kts 279°
2026-05-05 11:40 43.67479 -79.61137 572 ft 4 kts 270°
2026-05-05 11:44 43.67479 -79.61138 572 ft 1 kts 270°
2026-05-05 11:44 43.67479 -79.61152 573 ft 2 kts 270°
2026-05-05 11:45 43.67479 -79.61169 572 ft 2 kts 270°
2026-05-05 11:45 43.67479 -79.61186 573 ft 3 kts 270°
2026-05-05 11:45 43.67471 -79.61241 570 ft 8 kts 244°
2026-05-05 11:45 43.67415 -79.61296 569 ft 12 kts 202°
2026-05-05 11:46 43.67379 -79.61343 574 ft 6 kts 258°
2026-05-05 11:46 43.67389 -79.61398 574 ft 8 kts 298°
2026-05-05 11:46 43.67442 -79.61479 574 ft 15 kts 316°
2026-05-05 11:46 43.67538 -79.61608 572 ft 23 kts 315°
2026-05-05 11:47 43.67659 -79.61763 577 ft 24 kts 317°
2026-05-05 11:47 43.67781 -79.61920 576 ft 24 kts 316°
2026-05-05 11:47 43.67897 -79.62056 574 ft 17 kts 336°
2026-05-05 11:47 43.68002 -79.62142 571 ft 18 kts 317°
2026-05-05 11:48 43.68193 -79.62389 574 ft 19 kts 318°
2026-05-05 11:48 43.68292 -79.62511 572 ft 19 kts 319°
2026-05-05 11:48 43.68392 -79.62638 571 ft 20 kts 317°
2026-05-05 11:49 43.68495 -79.62771 574 ft 21 kts 316°
2026-05-05 11:49 43.68602 -79.62907 573 ft 21 kts 316°
2026-05-05 11:49 43.68710 -79.63050 574 ft 22 kts 316°
2026-05-05 11:49 43.68820 -79.63194 575 ft 22 kts 316°
2026-05-05 11:50 43.68930 -79.63338 579 ft 21 kts 316°
2026-05-05 11:50 43.69022 -79.63458 577 ft 13 kts 316°
2026-05-05 11:50 43.69085 -79.63523 577 ft 10 kts 343°
2026-05-05 11:50 43.69144 -79.63492 580 ft 10 kts 43°
2026-05-05 11:51 43.69203 -79.63437 574 ft 11 kts 20°
2026-05-05 11:51 43.69290 -79.63418 574 ft 14 kts 10°
2026-05-05 11:51 43.69376 -79.63356 577 ft 14 kts 35°
2026-05-05 11:51 43.69453 -79.63314 573 ft 10 kts 355°
2026-05-05 11:52 43.69493 -79.63370 578 ft 4 kts 274°
2026-05-05 11:52 43.69480 -79.63407 574 ft 5 kts 234°
2026-05-05 11:52 43.69446 -79.63459 574 ft 17 kts 228°
2026-05-05 11:52 43.69228 -79.63776 576 ft 78 kts 226°
2026-05-05 11:53 43.68716 -79.64520 576 ft 135 kts 226°
2026-05-05 11:53 43.67962 -79.65607 799 ft 163 kts 226°
2026-05-05 11:53 43.67225 -79.66708 1624 ft 154 kts 230°
2026-05-05 11:53 43.66527 -79.67885 2077 ft 166 kts 236°
2026-05-05 11:54 43.65798 -79.69215 2381 ft 181 kts 237°
2026-05-05 11:54 43.65018 -79.70698 2677 ft 201 kts 238°
2026-05-05 11:54 43.63937 -79.72069 2930 ft 227 kts 212°
2026-05-05 11:54 43.62398 -79.72848 3437 ft 243 kts 201°
2026-05-05 11:55 43.60683 -79.73119 4061 ft 255 kts 182°
2026-05-05 11:55 43.58954 -79.72414 4721 ft 269 kts 154°
2026-05-05 11:55 43.57647 -79.70492 5364 ft 287 kts 122°
2026-05-05 11:55 43.57222 -79.67752 5971 ft 303 kts 89°
2026-05-05 11:56 43.57837 -79.64956 6568 ft 310 kts 61°
2026-05-05 11:56 43.59048 -79.62484 7213 ft 313 kts 50°
2026-05-05 11:56 43.60429 -79.60143 7900 ft 317 kts 48°
2026-05-05 11:56 43.61815 -79.57746 8586 ft 321 kts 50°
2026-05-05 11:57 43.63339 -79.55513 9216 ft 319 kts 28°
2026-05-05 11:57 43.65354 -79.54477 9845 ft 306 kts 358°
2026-05-05 11:57 43.67392 -79.54863 10154 ft 300 kts 328°
2026-05-05 11:57 43.69031 -79.56630 10435 ft 297 kts 300°
2026-05-05 11:58 43.70062 -79.59142 10743 ft 310 kts 296°
2026-05-05 11:58 43.71641 -79.61265 11078 ft 339 kts 323°
2026-05-05 11:58 43.73952 -79.62330 11622 ft 364 kts 347°
2026-05-05 11:58 43.76566 -79.62010 12212 ft 386 kts 11°
2026-05-05 11:59 43.78985 -79.60321 12733 ft 404 kts 34°
2026-05-05 11:59 43.80901 -79.57417 13339 ft 415 kts 57°
2026-05-05 11:59 43.82172 -79.53813 13913 ft 420 kts 69°
2026-05-05 11:59 43.83162 -79.49993 14450 ft 424 kts 71°
2026-05-05 12:00 43.84132 -79.46117 14996 ft 427 kts 70°
2026-05-05 12:00 43.85077 -79.42655 15481 ft 430 kts 68°
2026-05-05 12:00 43.86241 -79.38812 16048 ft 433 kts 66°
2026-05-05 12:00 43.87495 -79.35007 16602 ft 437 kts 64°
2026-05-05 12:01 43.88817 -79.31194 17115 ft 441 kts 63°
2026-05-05 12:01 43.90180 -79.27359 17663 ft 445 kts 63°
2026-05-05 12:01 43.91562 -79.23499 18208 ft 449 kts 63°
2026-05-05 12:01 43.92953 -79.19606 18662 ft 453 kts 63°
2026-05-05 12:02 43.94354 -79.15665 19172 ft 456 kts 63°
2026-05-05 12:02 43.95755 -79.11701 19704 ft 459 kts 63°
2026-05-05 12:02 43.97162 -79.07704 20238 ft 462 kts 63°
2026-05-05 12:02 43.98575 -79.03683 20757 ft 465 kts 63°
2026-05-05 12:03 43.99994 -78.99635 21318 ft 467 kts 63°
2026-05-05 12:03 44.01415 -78.95570 21834 ft 470 kts 63°
2026-05-05 12:03 44.02849 -78.91464 22349 ft 473 kts 63°
2026-05-05 12:03 44.04284 -78.87346 22845 ft 477 kts 63°
2026-05-05 12:04 44.05737 -78.83170 23328 ft 480 kts 63°
2026-05-05 12:04 44.07192 -78.78981 23749 ft 483 kts 64°
2026-05-05 12:04 44.08646 -78.74789 24067 ft 489 kts 64°
2026-05-05 12:04 44.10227 -78.70589 24459 ft 491 kts 57°
2026-05-05 12:05 44.12185 -78.66688 24892 ft 493 kts 52°
2026-05-05 12:05 44.14283 -78.62912 25313 ft 495 kts 50°
2026-05-05 12:05 44.16465 -78.59190 25692 ft 498 kts 49°
2026-05-05 12:05 44.18699 -78.55473 26091 ft 501 kts 48°
2026-05-05 12:06 44.20954 -78.51744 26489 ft 504 kts 49°
2026-05-05 12:06 44.23216 -78.47991 26883 ft 507 kts 49°
2026-05-05 12:06 44.25484 -78.44207 27259 ft 510 kts 49°
2026-05-05 12:06 44.27764 -78.40380 27648 ft 513 kts 49°
2026-05-05 12:07 44.30047 -78.36530 28021 ft 516 kts 49°
2026-05-05 12:07 44.32339 -78.32651 28375 ft 519 kts 50°
2026-05-05 12:07 44.34642 -78.28747 28737 ft 522 kts 50°
2026-05-05 12:07 44.36959 -78.24810 29103 ft 525 kts 50°
2026-05-05 12:08 44.39286 -78.20853 29458 ft 529 kts 50°
2026-05-05 12:08 44.41631 -78.16860 29700 ft 534 kts 50°
2026-05-05 12:08 44.43991 -78.12837 29977 ft 536 kts 50°
2026-05-05 12:08 44.46359 -78.08795 30271 ft 539 kts 50°
2026-05-05 12:09 44.48738 -78.04729 30558 ft 541 kts 50°
2026-05-05 12:09 44.51095 -78.00696 30829 ft 543 kts 50°
2026-05-05 12:09 44.53489 -77.96594 31094 ft 545 kts 50°
2026-05-05 12:09 44.55893 -77.92467 31383 ft 548 kts 49°
2026-05-05 12:10 44.58309 -77.88314 31507 ft 552 kts 49°
2026-05-05 12:10 44.60744 -77.84122 31732 ft 554 kts 49°
2026-05-05 12:10 44.63175 -77.79930 32097 ft 553 kts 49°
2026-05-05 12:10 44.65608 -77.75729 32339 ft 555 kts 49°
2026-05-05 12:11 44.68039 -77.71525 32618 ft 555 kts 49°
2026-05-05 12:11 44.70471 -77.67312 32949 ft 555 kts 49°
2026-05-05 12:11 44.72900 -77.63100 33254 ft 555 kts 49°
2026-05-05 12:11 44.75328 -77.58883 33449 ft 557 kts 49°
2026-05-05 12:12 44.77774 -77.54629 33720 ft 557 kts 49°
2026-05-05 12:12 44.80201 -77.50400 33999 ft 555 kts 49°
2026-05-05 12:12 44.82623 -77.46173 34293 ft 554 kts 49°
2026-05-05 12:12 44.85034 -77.41958 34575 ft 552 kts 49°
2026-05-05 12:13 44.87444 -77.37741 34842 ft 551 kts 49°
2026-05-05 12:13 44.89845 -77.33533 35053 ft 552 kts 49°
2026-05-05 12:13 44.92220 -77.29365 35236 ft 551 kts 49°
2026-05-05 12:13 44.94647 -77.25099 35542 ft 549 kts 49°
2026-05-05 12:14 44.97033 -77.20897 35790 ft 548 kts 49°
2026-05-05 12:14 44.99384 -77.16752 36011 ft 547 kts 49°
2026-05-05 12:14 45.01762 -77.12554 36218 ft 546 kts 48°
2026-05-05 12:14 45.04164 -77.08308 36439 ft 546 kts 48°
2026-05-05 12:15 45.06534 -77.04111 36572 ft 547 kts 48°
2026-05-05 12:15 45.08915 -76.99892 36585 ft 551 kts 48°
2026-05-05 12:15 45.13666 -76.91451 36574 ft 552 kts 49°
2026-05-05 12:16 45.18441 -76.82935 36565 ft 551 kts 49°
2026-05-05 12:16 45.23199 -76.74428 36573 ft 551 kts 49°
2026-05-05 12:17 45.27960 -76.65890 36562 ft 552 kts 49°
2026-05-05 12:17 45.32722 -76.57326 36570 ft 552 kts 49°
2026-05-05 12:18 45.37473 -76.48756 36578 ft 552 kts 49°
2026-05-05 12:18 45.42223 -76.40155 36567 ft 553 kts 49°
2026-05-05 12:19 45.46976 -76.31523 36575 ft 554 kts 49°
2026-05-05 12:19 45.51722 -76.22882 36572 ft 553 kts 49°
2026-05-05 12:20 45.56435 -76.14268 36568 ft 550 kts 49°
2026-05-05 12:20 45.61101 -76.05717 36569 ft 549 kts 49°